Simultaneous Nadir Overpasses (SNOs) Predictions

Prediction of SNOs between GOES-15 and TERRA Satellite Orbit:

Table of predicted SNOs for the next 14.0 days since TLE Epoch: 4/6/2024
Index Date Time (GOES-15) GOES-15 Lat,Lon TERRA Lat,Lon Distance(km) Time Diff (sec)
1 04/07/2024 05:38:08 -0.09, 61.24 -0.57, 63.52 259.36 80
2 04/07/2024 17:58:16 0.09, 61.20 -0.46, 58.63 292.80 80
3 04/09/2024 17:38:31 0.09, 61.21 0.42, 62.74 174.37 80
4 04/10/2024 05:58:31 -0.10, 61.26 0.61, 57.88 383.57 80
5 04/12/2024 05:44:05 -0.10, 61.27 -0.23, 62.01 83.01 80
6 04/12/2024 18:04:13 0.11, 61.23 -0.74, 57.10 469.23 80
7 04/14/2024 17:47:08 0.12, 61.26 0.12, 61.23 3.36 80
8 04/16/2024 17:27:22 0.12, 61.28 0.99, 65.35 462.70 80
9 04/17/2024 05:47:20 -0.13, 61.33 0.07, 60.50 95.53 80
10 04/19/2024 05:32:54 -0.13, 61.35 -0.82, 64.61 370.80 80
11 04/19/2024 17:53:02 0.13, 61.31 -0.21, 59.72 181.25 80
